Weather History for Everett, WA

Change the Weather History Date:

Friday, January 18, 2013

  Actual Average Record
Temperature  
Mean Temperature 30 °F -  
Max Temperature 34 °F 46 °F 59 °F (2009)
Min Temperature 26 °F 35 °F 1 °F (1950)
Degree Days  
Heating Degree Days 35    
Moisture  
Dew Point 28 °F    
Average Humidity 92    
Maximum Humidity 100    
Minimum Humidity 80    
Precipitation  
Precipitation 0.00 in - - ()
Sea Level Pressure  
Sea Level Pressure 30.29 in    
Wind  
Wind Speed 1 mph (NNE)    
Max Wind Speed 5 mph    
Max Gust Speed -    
Visibility 1 miles    
Events Fog    
Averages and records for this station are not official NWS values.
T = Trace of Precipitation, MM = Missing Value Source: NWS Daily Summary

Daily Weather History Graph

Daily Weather History Graph

Search for Another Location

Airport:

Trip Planner

Search our weather history database for the weather conditions in past years. The results will help you decide how hot, cold, wet, or windy it might be!

Date:

Astronomy

Jan. 18, 2013 Rise Set
Actual Time 7:51 AM PST 4:48 PM PST
Civil Twilight 7:16 AM PST 5:23 PM PST
Nautical Twilight 6:38 AM PST 6:01 PM PST
Astronomical Twilight 6:01 AM PST 6:38 PM PST
Moon 10:55 AM PST (1/18) 12:20 AM PST (1/18)
Length of Visible Light 10h 06m
Length of Day
8h 57m
Waxing Crescent, 48% of the Moon is Illuminated
Jan 18
Waxing Crescent
Jan 18
First Quarter
Jan 26
Full
Feb 3
Last Quarter
Feb 9
New

Hourly Weather History & Observations

Time (PST) Temp. Windchill Dew Point Humidity Pressure Visibility Wind Dir Wind Speed Gust Speed Precip Events Conditions
12:34 AM 28.4 °F - 24.8 °F 86% 30.28 in 2.5 mi Calm Calm - N/A   Partly Cloudy
12:37 AM 28.4 °F - 26.6 °F 93% 30.28 in 0.8 mi Calm Calm - N/A   Mist
12:43 AM 28.4 °F - 26.6 °F 93% 30.28 in 0.2 mi Calm Calm - N/A Fog Light Freezing Fog
12:53 AM 28.0 °F - 26.1 °F 92% 30.30 in 0.2 mi Calm Calm - N/A Fog Light Freezing Fog
1:01 AM 28.4 °F - 26.6 °F 93% 30.27 in 0.8 mi Calm Calm - N/A   Mist
1:07 AM 28.4 °F - 26.6 °F 93% 30.27 in 1.5 mi Calm Calm - N/A   Scattered Clouds
1:16 AM 26.6 °F 21.2 °F 24.8 °F 93% 30.27 in 3.0 mi SSE 4.6 mph - N/A   Partly Cloudy
1:42 AM 28.4 °F - 26.6 °F 93% 30.27 in 1.2 mi Calm Calm - N/A   Partly Cloudy
1:47 AM 30.2 °F - 28.4 °F 93% 30.27 in 0.2 mi Calm Calm - N/A Fog Light Freezing Fog
1:53 AM 30.0 °F 26.5 °F 28.0 °F 92% 30.29 in 0.2 mi SSE 3.5 mph - N/A Fog Light Freezing Fog
2:39 AM 28.4 °F - 24.8 °F 86% 30.28 in 0.8 mi Calm Calm - N/A   Mist
2:44 AM 28.4 °F - 26.6 °F 93% 30.28 in 1.2 mi Calm Calm - N/A   Partly Cloudy
2:51 AM 28.4 °F 24.6 °F 26.6 °F 93% 30.28 in 3.0 mi North 3.5 mph - N/A   Partly Cloudy
2:53 AM 28.9 °F - 27.0 °F 92% 30.30 in 3.0 mi Calm Calm - N/A   Partly Cloudy
2:59 AM 28.4 °F - 28.4 °F 100% 30.28 in 1.5 mi Calm Calm - N/A   Scattered Clouds
3:01 AM 28.4 °F - 28.4 °F 100% 30.28 in 0.8 mi Calm Calm - N/A   Mist
3:12 AM 28.4 °F - 26.6 °F 93% 30.27 in 0.2 mi Calm Calm - N/A Fog Light Freezing Fog
3:39 AM 26.6 °F - 24.8 °F 93% 30.26 in 0.5 mi Calm Calm - N/A Fog Light Freezing Fog
3:53 AM 27.0 °F 23.0 °F 25.0 °F 92% 30.29 in 0.2 mi SSW 3.5 mph - N/A Fog Light Freezing Fog
4:12 AM 28.4 °F - 26.6 °F 93% 30.26 in 0.2 mi Calm Calm - N/A Fog Light Freezing Fog
4:40 AM 26.6 °F 22.6 °F 24.8 °F 93% 30.25 in 0.2 mi South 3.5 mph - N/A Fog Light Freezing Fog
4:53 AM 27.0 °F - 26.1 °F 96% 30.27 in 0.5 mi Calm Calm - N/A Fog Light Freezing Fog
5:04 AM 28.4 °F - 26.6 °F 93% 30.25 in 2.0 mi Calm Calm - N/A   Scattered Clouds
5:12 AM 26.6 °F - 24.8 °F 93% 30.25 in 5.0 mi Calm Calm - N/A   Partly Cloudy
5:32 AM 28.4 °F - 26.6 °F 93% 30.25 in 0.2 mi Calm Calm - N/A Fog Light Freezing Fog
5:43 AM 28.4 °F - 26.6 °F 93% 30.25 in 0.2 mi Calm Calm - N/A Fog Light Freezing Fog
5:53 AM 28.0 °F - 26.1 °F 92% 30.28 in 0.2 mi Calm Calm - N/A Fog Light Freezing Fog
6:43 AM 28.4 °F 24.6 °F 24.8 °F 86% 30.24 in 0.2 mi South 3.5 mph - N/A Fog Light Freezing Fog
6:51 AM 28.4 °F - 24.8 °F 86% 30.24 in 3.0 mi Calm Calm - N/A Fog Patches of Fog
6:53 AM 27.0 °F - 25.0 °F 92% 30.27 in 3.0 mi Calm Calm - N/A Fog Patches of Fog
7:53 AM 28.9 °F - 26.1 °F 89% 30.27 in 5.0 mi Calm Calm - N/A Fog Patches of Fog
8:43 AM 30.2 °F 25.4 °F 24.8 °F 80% 30.28 in 1.5 mi North 4.6 mph - N/A   Haze
8:47 AM 30.2 °F 25.4 °F 26.6 °F 86% 30.28 in 0.2 mi North 4.6 mph - N/A Fog Light Freezing Fog
8:53 AM 30.0 °F 25.2 °F 26.1 °F 85% 30.30 in 0.2 mi Variable 4.6 mph - N/A Fog Light Freezing Fog
9:02 AM 30.2 °F 25.4 °F 26.6 °F 86% 30.28 in 0.2 mi North 4.6 mph - N/A Fog Light Freezing Fog
9:53 AM 32.0 °F - 28.0 °F 85% 30.31 in 0.2 mi Calm Calm - N/A Fog Fog
10:29 AM 33.8 °F - 28.4 °F 81% 30.29 in 3.0 mi Calm Calm - N/A Fog Patches of Fog
10:53 AM 34.0 °F - 32.0 °F 92% 30.31 in 3.0 mi Calm Calm - N/A Fog Patches of Fog
11:22 AM 33.8 °F - 30.2 °F 87% 30.29 in 3.0 mi Calm Calm - N/A Fog Patches of Fog
11:29 AM 32.0 °F - 30.2 °F 93% 30.29 in 0.2 mi Calm Calm - N/A Fog Fog
11:53 AM 32.0 °F - 30.0 °F 92% 30.32 in 0.2 mi Calm Calm - N/A Fog Fog
12:35 PM 30.2 °F - 28.4 °F 93% 30.29 in 0.2 mi Calm Calm - N/A Fog Fog
12:53 PM 30.9 °F - 30.0 °F 96% 30.32 in 0.2 mi Calm Calm - N/A Fog Fog
1:53 PM 33.1 °F 30.0 °F 30.9 °F 92% 30.30 in 0.2 mi NNE 3.5 mph - N/A Fog Fog
2:53 PM 33.1 °F 30.0 °F 30.9 °F 92% 30.31 in 0.2 mi North 3.5 mph - N/A Fog Fog
3:53 PM 33.1 °F 28.7 °F 30.9 °F 92% 30.32 in 0.2 mi North 4.6 mph - N/A Fog Fog
4:53 PM 33.1 °F 30.0 °F 30.9 °F 92% 30.31 in 0.2 mi NNW 3.5 mph - N/A Fog Fog
5:53 PM 34.0 °F 29.8 °F 30.9 °F 89% 30.32 in 0.2 mi NNE 4.6 mph - N/A Fog Fog
6:53 PM 34.0 °F - 32.0 °F 92% 30.32 in 0.2 mi Calm Calm - N/A Fog Fog
7:53 PM 34.0 °F - 32.0 °F 92% 30.32 in 0.2 mi Calm Calm - N/A Fog Fog
8:53 PM 34.0 °F - 33.1 °F 96% 30.34 in 0.2 mi Calm Calm - N/A Fog Fog
9:53 PM 34.0 °F - 33.1 °F 96% 30.35 in 0.2 mi Calm Calm - N/A Fog Fog
10:49 PM 33.8 °F - 32.0 °F 93% 30.33 in 0.2 mi Calm Calm - N/A Fog Fog
10:53 PM 33.1 °F - 32.0 °F 96% 30.35 in 0.2 mi Calm Calm - N/A Fog Fog
11:20 PM 33.8 °F - 32.0 °F 93% 30.33 in 0.2 mi Calm Calm - N/A Fog Fog
11:53 PM 34.0 °F - 32.0 °F 92% 30.35 in 0.2 mi Calm Calm - N/A Fog Fog